Location: Mountain Grove
(34.0887°N, 86.6172°W)
Time: 21:48:19
(UTC+00:00)

Cosmos 1656 - Pass Details

Date: 14 July 2020
Orbit: 800 x 848 km, 71.1° (Epoch: 08 August)

Event Time Altitude Azimuth Distance (km) Brightness Sun altitude
Rises 07:34:05 0° 341° (NNW) 3,312 7.4 -29.3°
Reaches altitude 10° 07:36:30 10° 343° (NNW) 2,380 6.5 -29.1°
Enters shadow 07:41:52 76° 61° (ENE) 830 3.6 -28.5°
